Follow iAlert.com on twitter @ialertcom
Search For Active Alerts in Your Area  
  Hi Guest:  [ Sign-up / Services ] [ Login ]

Current weather by "City, St" or "zip code"  
 

Advertise Here

Current Conditions: Wexford County Airport, MI

Fair


42.0 F

Last Updated on Apr 20 2018, 8:55 pm EDT
Humidity: 30%
Wind Speed: NW 3.5 mph
Barometer 30.42 in
Dewpoint: 12.7 F
Visibility: 10.00 mi
Precip: --
Heat Index: NA
Wind Chill: NA
Current conditions at:

Wexford County Airport, MI (KCAD)

Lat: 44.27 Lon: 85.42

Local Radar Image active severe weather and emergency alerts image image weather storm and storm spotter reports image weather observation monitoring service image
Local
Radar
Active
Alerts
Storm Reports Obs
Monitoring

iAlert Weather and Emergency Alert Notification Services:


ialert severe weather and emergency alerts by text message and email ialert daily weather forecast by email and text message service ialert real-time weather-observation monitoring and alert notification service ialert storm report monitoring alert notification

Observation History for Wexford County Airport, MI


Time Wind
(mph)
Vis
(mi)
Weather Precip (in) Temperature (F) Relative
Humidity
Wind
Chill
(°F)
Heat
Index
(°F)
Pressure
Air Dwpt altimeter
(in)
sea level
(mb)
8:55 pm EDT NW 3.5 10.00 Fair -- 42.0 12.7 30% NA NA 30.42 M
7:55 pm EDT NW 6.9 10.00 Fair -- 47.0 14.0 26% 44 NA 30.41 M
6:55 pm EDT NW 3.5 10.00 Fair -- 51.0 13.8 23% NA NA 30.42 M
5:55 pm EDT NW 5.8 10.00 Fair -- 51.0 14.2 23% 49 NA 30.42 M
4:55 pm EDT NW 6.9 10.00 Fair -- 52.0 15.6 24% 50 NA 30.42 M
3:55 pm EDT N 4.6 10.00 Fair -- 52.0 17.6 25% 51 NA 30.43 M
2:55 pm EDT NW 8.1 10.00 Fair -- 51.0 16.2 25% 48 NA 30.44 M
1:55 pm EDT NW 9.2 G 17.3 10.00 Fair -- 50.0 16.5 26% 46 NA 30.45 M
12:55 pm EDT NW 4.6 10.00 Fair -- 49.0 17.1 28% 47 NA 30.46 M
11:55 am EDT N 6.9 10.00 Fair -- 47.0 16.0 29% 44 NA 30.46 M
10:55 am EDT NW 6.9 10.00 Fair -- 45.0 14.7 29% 41 NA 30.45 M
9:55 am EDT N 3.5 10.00 Fair -- 42.0 14.4 33% NA NA 30.44 M
8:55 am EDT N 0.0 10.00 Fair -- 32.0 23.5 71% NA NA 30.44 M
7:55 am EDT N 0.0 10.00 Fair -- 26.0 18.5 74% NA NA 30.43 M
6:55 am EDT N 0.0 10.00 Fair -- 22.0 16.0 77% NA NA 30.42 M
5:55 am EDT W 3.5 10.00 Fair -- 22.0 16.2 78% NA NA 30.40 M
4:55 am EDT N 0.0 10.00 Fair -- 25.0 16.3 71% NA NA 30.38 M
4:35 am EDT N 0.0 10.00 Fair -- 24.0 15.1 69% NA NA 30.38 M
3:55 am EDT N 0.0 10.00 Fair -- 25.0 13.5 61% NA NA 30.37 M
3:35 am EDT N 0.0 10.00 Fair -- 29.0 12.7 51% NA NA 30.37 M
2:55 am EDT NW 3.5 10.00 Fair -- 29.0 12.9 52% NA NA 30.37 M
2:35 am EDT N 0.0 10.00 Fair -- 31.0 13.1 48% NA NA 30.37 M
1:55 am EDT NW 5.8 10.00 Fair -- 25.0 17.6 72% 18 NA 30.37 M
1:35 am EDT NW 3.5 10.00 Fair -- 25.0 17.6 72% NA NA 30.37 M

Regional Weather Observation


Cherry Capital Airport, MI (KTVC)

Partly Cloudy
42.0 F

Bellaire, Antrim County Airport, MI (KACB)

Fair
35.0 F

Frankfort, Frankfort Dow Memorial Field Airport, MI (KFKS)

Fair
40.0 F

Manistee County - Blacker Airport, MI (KMBL)

Fair
40.0 F

Grayling, Grayling Army Airfield, MI (KGOV)

Fair
36.0 F

Houghton Lake, Roscommon County Airport, MI (KHTL)

Fair
44.0 F

Advertise Here